Year,Month,Day,Hour,Minute,Value (Times are PST for temperature in C)
2010,10,10,00,00,15.00
2010,10,10,00,01,15.00
2010,10,10,00,02,15.00
2010,10,10,00,03,15.00
2010,10,10,00,04,15.00
2010,10,10,00,05,15.00
2010,10,10,00,06,15.00
2010,10,10,00,07,15.00
2010,10,10,00,08,15.00
2010,10,10,00,09,15.00
2010,10,10,00,10,15.00
2010,10,10,00,11,15.00
2010,10,10,00,12,15.00
2010,10,10,00,13,15.00
2010,10,10,00,14,15.00
2010,10,10,00,15,15.00
2010,10,10,00,16,15.00
2010,10,10,00,17,15.00
2010,10,10,00,18,15.00
2010,10,10,00,19,15.00
2010,10,10,00,20,15.00
2010,10,10,00,21,15.00
2010,10,10,00,22,15.00
2010,10,10,00,23,15.00
2010,10,10,00,24,14.90
2010,10,10,00,25,14.90
2010,10,10,00,26,14.90
2010,10,10,00,27,14.90
2010,10,10,00,28,14.90
2010,10,10,00,29,14.90
2010,10,10,00,30,14.90
2010,10,10,00,31,14.90
2010,10,10,00,32,14.90
2010,10,10,00,33,14.90
2010,10,10,00,34,14.90
2010,10,10,00,35,14.90
2010,10,10,00,36,14.80
2010,10,10,00,37,14.80
2010,10,10,00,38,14.80
2010,10,10,00,39,14.80
2010,10,10,00,40,14.80
2010,10,10,00,41,14.90
2010,10,10,00,42,14.90
2010,10,10,00,43,14.90
2010,10,10,00,44,14.90
2010,10,10,00,45,14.90
2010,10,10,00,46,14.80
2010,10,10,00,47,14.80
2010,10,10,00,48,14.80
2010,10,10,00,49,14.80
2010,10,10,00,50,14.80
2010,10,10,00,51,14.80
2010,10,10,00,52,14.80
2010,10,10,00,53,14.80
2010,10,10,00,54,14.80
2010,10,10,00,55,14.80
2010,10,10,00,56,14.80
2010,10,10,00,57,14.80
2010,10,10,00,58,14.80
2010,10,10,00,59,14.80
2010,10,10,01,00,14.80
2010,10,10,01,01,14.80
2010,10,10,01,02,14.80
2010,10,10,01,03,14.80
2010,10,10,01,04,14.80
2010,10,10,01,05,14.80
2010,10,10,01,06,14.70
2010,10,10,01,07,14.70
2010,10,10,01,08,14.70
2010,10,10,01,09,14.70
2010,10,10,01,10,14.70
2010,10,10,01,11,14.70
2010,10,10,01,12,14.70
2010,10,10,01,13,14.70
2010,10,10,01,14,14.70
2010,10,10,01,15,14.70
2010,10,10,01,16,14.70
2010,10,10,01,17,14.70
2010,10,10,01,18,14.70
2010,10,10,01,19,14.70
2010,10,10,01,20,14.70
2010,10,10,01,21,14.70
2010,10,10,01,22,14.70
2010,10,10,01,23,14.70
2010,10,10,01,24,14.70
2010,10,10,01,25,14.70
2010,10,10,01,26,14.70
2010,10,10,01,27,14.60
2010,10,10,01,28,14.60
2010,10,10,01,29,14.60
2010,10,10,01,30,14.60
2010,10,10,01,31,14.60
2010,10,10,01,32,14.60
2010,10,10,01,33,14.60
2010,10,10,01,34,14.60
2010,10,10,01,35,14.60
2010,10,10,01,36,14.60
2010,10,10,01,37,14.60
2010,10,10,01,38,14.60
2010,10,10,01,39,14.60
2010,10,10,01,40,14.50
2010,10,10,01,41,14.50
2010,10,10,01,42,14.50
2010,10,10,01,43,14.50
2010,10,10,01,44,14.50
2010,10,10,01,49,14.40
2010,10,10,01,50,14.40
2010,10,10,01,51,14.40
2010,10,10,01,52,14.40
2010,10,10,01,53,14.40
2010,10,10,01,54,14.40
2010,10,10,01,55,14.40
2010,10,10,01,56,14.40
2010,10,10,01,57,14.40
2010,10,10,01,58,14.30
2010,10,10,01,59,14.30
2010,10,10,02,00,14.30
2010,10,10,02,01,14.30
2010,10,10,02,02,14.30
2010,10,10,02,03,14.30
2010,10,10,02,04,14.30
2010,10,10,02,05,14.30
2010,10,10,02,06,14.30
2010,10,10,02,07,14.30
2010,10,10,02,08,14.30
2010,10,10,02,09,14.30
2010,10,10,02,10,14.30
2010,10,10,02,11,14.20
2010,10,10,02,12,14.20
2010,10,10,02,13,14.20
2010,10,10,02,14,14.20
2010,10,10,02,15,14.20
2010,10,10,02,16,14.20
2010,10,10,02,17,14.20
2010,10,10,02,18,14.20
2010,10,10,02,19,14.20
2010,10,10,02,20,14.20
2010,10,10,02,21,14.20
2010,10,10,02,22,14.20
2010,10,10,02,23,14.20
2010,10,10,02,24,14.20
2010,10,10,02,25,14.20
2010,10,10,02,26,14.20
2010,10,10,02,27,14.20
2010,10,10,02,28,14.10
2010,10,10,02,29,14.10
2010,10,10,02,30,14.10
2010,10,10,02,31,14.10
2010,10,10,02,32,14.10
2010,10,10,02,33,14.10
2010,10,10,02,34,14.10
2010,10,10,02,35,14.10
2010,10,10,02,36,14.10
2010,10,10,02,37,14.10
2010,10,10,02,38,14.10
2010,10,10,02,39,14.10
2010,10,10,02,40,14.10
2010,10,10,02,41,14.10
2010,10,10,02,42,14.10
2010,10,10,02,43,14.10
2010,10,10,02,44,14.00
2010,10,10,02,45,14.00
2010,10,10,02,46,14.00
2010,10,10,02,47,14.00
2010,10,10,02,48,14.00
2010,10,10,02,49,14.00
2010,10,10,02,50,14.00
2010,10,10,02,51,13.90
2010,10,10,02,52,13.90
2010,10,10,02,53,13.90
2010,10,10,02,54,13.90
2010,10,10,02,55,13.90
2010,10,10,02,56,13.90
2010,10,10,02,57,13.90
2010,10,10,02,58,13.90
2010,10,10,02,59,13.90
2010,10,10,03,00,13.90
2010,10,10,03,01,13.90
2010,10,10,03,02,13.90
2010,10,10,03,03,13.90
2010,10,10,03,04,13.90
2010,10,10,03,05,13.90
2010,10,10,03,06,13.90
2010,10,10,03,07,13.90
2010,10,10,03,08,13.90
2010,10,10,03,09,13.80
2010,10,10,03,10,13.80
2010,10,10,03,11,13.70
2010,10,10,03,12,13.70
2010,10,10,03,13,13.70
2010,10,10,03,14,13.70
2010,10,10,03,15,13.70
2010,10,10,03,16,13.70
2010,10,10,03,17,13.70
2010,10,10,03,18,13.60
2010,10,10,03,19,13.50
2010,10,10,03,20,13.50
2010,10,10,03,21,13.50
2010,10,10,03,22,13.50
2010,10,10,03,23,13.50
2010,10,10,03,24,13.50
2010,10,10,03,25,13.50
2010,10,10,03,26,13.50
2010,10,10,03,27,13.50
2010,10,10,03,28,13.50
2010,10,10,03,29,13.40
2010,10,10,03,30,13.40
2010,10,10,03,31,13.50
2010,10,10,03,32,13.50
2010,10,10,03,33,13.40
2010,10,10,03,34,13.50
2010,10,10,03,35,13.50
2010,10,10,03,36,13.60
2010,10,10,03,37,13.60
2010,10,10,03,38,13.60
2010,10,10,03,39,13.60
2010,10,10,03,40,13.60
2010,10,10,03,41,13.60
2010,10,10,03,42,13.40
2010,10,10,03,43,13.30
2010,10,10,03,44,13.30
2010,10,10,03,45,13.20
2010,10,10,03,46,13.10
2010,10,10,03,47,13.10
2010,10,10,03,48,13.10
2010,10,10,03,49,13.10
2010,10,10,03,50,13.10
2010,10,10,03,51,13.00
2010,10,10,03,52,13.00
2010,10,10,03,53,13.00
2010,10,10,03,54,13.00
2010,10,10,03,55,13.00
2010,10,10,03,56,13.00
2010,10,10,03,57,12.90
2010,10,10,03,58,12.90
2010,10,10,03,59,12.80
2010,10,10,04,00,12.80
2010,10,10,04,01,12.80
2010,10,10,04,02,12.80
2010,10,10,04,03,12.80
2010,10,10,04,04,12.80
2010,10,10,04,05,12.70
2010,10,10,04,06,12.70
2010,10,10,04,07,12.70
2010,10,10,04,08,12.70
2010,10,10,04,09,12.70
2010,10,10,04,10,12.70
2010,10,10,04,11,12.70
2010,10,10,04,12,12.70
2010,10,10,04,13,12.70
2010,10,10,04,14,12.70
2010,10,10,04,15,12.70
2010,10,10,04,16,12.70
2010,10,10,04,17,12.70
2010,10,10,04,18,12.70
2010,10,10,04,19,12.70
2010,10,10,04,20,12.70
2010,10,10,04,21,12.70
2010,10,10,04,22,12.60
2010,10,10,04,23,12.60
2010,10,10,04,24,12.60
2010,10,10,04,25,12.60
2010,10,10,04,26,12.60
2010,10,10,04,27,12.60
2010,10,10,04,28,12.60
2010,10,10,04,29,12.60
2010,10,10,04,30,12.60
2010,10,10,04,31,12.60
2010,10,10,04,32,12.60
2010,10,10,04,33,12.70
2010,10,10,04,34,12.70
2010,10,10,04,35,12.70
2010,10,10,04,36,12.80
2010,10,10,04,37,12.80
2010,10,10,04,38,12.80
2010,10,10,04,39,12.90
2010,10,10,04,40,12.90
2010,10,10,04,41,12.90
2010,10,10,04,42,12.90
2010,10,10,04,43,12.90
2010,10,10,04,44,13.00
2010,10,10,04,45,13.00
2010,10,10,04,46,13.00
2010,10,10,04,47,13.00
2010,10,10,04,48,13.10
2010,10,10,04,49,13.10
2010,10,10,04,50,13.10
2010,10,10,04,51,13.10
2010,10,10,04,52,13.10
2010,10,10,04,53,13.10
2010,10,10,04,54,13.10
2010,10,10,04,55,13.10
2010,10,10,04,56,13.10
2010,10,10,04,57,13.10
2010,10,10,04,58,13.10
2010,10,10,04,59,13.00
2010,10,10,05,00,13.00
2010,10,10,05,01,13.00
2010,10,10,05,02,13.00
2010,10,10,05,03,13.00
2010,10,10,05,04,13.00
2010,10,10,05,05,13.10
2010,10,10,05,06,13.10
2010,10,10,05,07,13.10
2010,10,10,05,08,13.10
2010,10,10,05,09,13.10
2010,10,10,05,10,13.10
2010,10,10,05,11,13.10
2010,10,10,05,12,13.10
2010,10,10,05,13,13.10
2010,10,10,05,14,13.20
2010,10,10,05,15,13.20
2010,10,10,05,16,13.20
2010,10,10,05,17,13.30
2010,10,10,05,18,13.30
2010,10,10,05,19,13.30
2010,10,10,05,20,13.30
2010,10,10,05,21,13.30
2010,10,10,05,22,13.30
2010,10,10,05,23,13.30
2010,10,10,05,24,13.30
2010,10,10,05,25,13.30
2010,10,10,05,26,13.30
2010,10,10,05,27,13.30
2010,10,10,05,28,13.30
2010,10,10,05,29,13.30
2010,10,10,05,30,13.30
2010,10,10,05,31,13.30
2010,10,10,05,32,13.30
2010,10,10,05,33,13.20
2010,10,10,05,34,13.20
2010,10,10,05,35,13.20
2010,10,10,05,36,13.20
2010,10,10,05,37,13.20
2010,10,10,05,38,13.20
2010,10,10,05,39,13.10
2010,10,10,05,40,13.10
2010,10,10,05,41,13.10
2010,10,10,05,42,13.10
2010,10,10,05,43,13.10
2010,10,10,05,44,13.10
2010,10,10,05,45,13.10
2010,10,10,05,46,13.00
2010,10,10,05,47,13.00
2010,10,10,05,48,12.90
2010,10,10,05,49,12.90
2010,10,10,05,50,12.80
2010,10,10,05,51,12.70
2010,10,10,05,52,12.70
2010,10,10,05,53,12.60
2010,10,10,05,54,12.50
2010,10,10,05,55,12.50
2010,10,10,05,56,12.40
2010,10,10,05,57,12.40
2010,10,10,05,58,12.30
2010,10,10,05,59,12.30
2010,10,10,06,00,12.30
2010,10,10,06,01,12.20
2010,10,10,06,02,12.20
2010,10,10,06,03,12.20
2010,10,10,06,04,12.10
2010,10,10,06,05,12.10
2010,10,10,06,06,12.10
2010,10,10,06,07,12.00
2010,10,10,06,08,12.00
2010,10,10,06,09,11.90
2010,10,10,06,10,11.90
2010,10,10,06,11,11.80
2010,10,10,06,12,11.80
2010,10,10,06,13,11.80
2010,10,10,06,14,11.80
2010,10,10,06,15,11.70
2010,10,10,06,16,11.70
2010,10,10,06,17,11.70
2010,10,10,06,18,11.70
2010,10,10,06,19,11.60
2010,10,10,06,20,11.60
2010,10,10,06,21,11.60
2010,10,10,06,22,11.60
2010,10,10,06,23,11.60
2010,10,10,06,24,11.60
2010,10,10,06,25,11.60
2010,10,10,06,26,11.60
2010,10,10,06,27,11.60
2010,10,10,06,28,11.60
2010,10,10,06,29,11.50
2010,10,10,06,30,11.50
2010,10,10,06,31,11.50
2010,10,10,06,32,11.50
2010,10,10,06,33,11.50
2010,10,10,06,34,11.50
2010,10,10,06,35,11.40
2010,10,10,06,36,11.40
2010,10,10,06,37,11.40
2010,10,10,06,38,11.40
2010,10,10,06,39,11.40
2010,10,10,06,40,11.40
2010,10,10,06,41,11.40
2010,10,10,06,42,11.30
2010,10,10,06,43,11.30
2010,10,10,06,44,11.30
2010,10,10,06,45,11.30
2010,10,10,06,46,11.30
2010,10,10,06,47,11.30
2010,10,10,06,48,11.20
2010,10,10,06,49,11.20
2010,10,10,06,50,11.20
2010,10,10,06,51,11.20
2010,10,10,06,52,11.20
2010,10,10,06,53,11.20
2010,10,10,06,54,11.20
2010,10,10,06,55,11.20
2010,10,10,06,56,11.20
2010,10,10,06,57,11.10
2010,10,10,06,58,11.10
2010,10,10,06,59,11.10
2010,10,10,07,00,11.10
2010,10,10,07,01,11.10
2010,10,10,07,02,11.10
2010,10,10,07,03,11.10
2010,10,10,07,04,11.10
2010,10,10,07,05,11.10
2010,10,10,07,06,11.20
2010,10,10,07,07,11.20
2010,10,10,07,08,11.20
2010,10,10,07,09,11.20
2010,10,10,07,10,11.20
2010,10,10,07,11,11.20
2010,10,10,07,12,11.30
2010,10,10,07,13,11.30
2010,10,10,07,14,11.30
2010,10,10,07,15,11.40
2010,10,10,07,16,11.40
2010,10,10,07,17,11.40
2010,10,10,07,18,11.50
2010,10,10,07,19,11.50
2010,10,10,07,20,11.60
2010,10,10,07,21,11.60
2010,10,10,07,22,11.60
2010,10,10,07,23,11.60
2010,10,10,07,24,11.60
2010,10,10,07,25,11.70
2010,10,10,07,26,11.70
2010,10,10,07,27,11.70
2010,10,10,07,28,11.70
2010,10,10,07,29,11.70
2010,10,10,07,30,11.80
2010,10,10,07,31,11.80
2010,10,10,07,32,11.80
2010,10,10,07,33,11.80
2010,10,10,07,34,11.80
2010,10,10,07,35,11.80
2010,10,10,07,36,11.80
2010,10,10,07,37,11.80
2010,10,10,07,38,11.80
2010,10,10,07,39,11.70
2010,10,10,07,40,11.70
2010,10,10,07,41,11.60
2010,10,10,07,42,11.60
2010,10,10,07,43,11.50
2010,10,10,07,44,11.40
2010,10,10,07,45,11.40
2010,10,10,07,46,11.30
2010,10,10,07,47,11.30
2010,10,10,07,48,11.20
2010,10,10,07,49,11.20
2010,10,10,07,50,11.10
2010,10,10,07,51,11.10
2010,10,10,07,52,11.00
2010,10,10,07,53,11.00
2010,10,10,07,54,10.90
2010,10,10,07,55,10.90
2010,10,10,07,56,10.80
2010,10,10,07,57,10.80
2010,10,10,07,58,10.80
2010,10,10,07,59,10.80
2010,10,10,08,00,10.70
2010,10,10,08,01,10.70
2010,10,10,08,02,10.70
2010,10,10,08,03,10.60
2010,10,10,08,04,10.60
2010,10,10,08,05,10.60
2010,10,10,08,06,10.50
2010,10,10,08,07,10.50
2010,10,10,08,08,10.50
2010,10,10,08,09,10.40
2010,10,10,08,10,10.40
2010,10,10,08,11,10.40
2010,10,10,08,12,10.40
2010,10,10,08,13,10.40
2010,10,10,08,14,10.30
2010,10,10,08,15,10.30
2010,10,10,08,16,10.30
2010,10,10,08,17,10.30
2010,10,10,08,18,10.30
2010,10,10,08,19,10.30
2010,10,10,08,20,10.30
2010,10,10,08,21,10.30
2010,10,10,08,22,10.20
2010,10,10,08,23,10.20
2010,10,10,08,24,10.20
2010,10,10,08,25,10.20
2010,10,10,08,26,10.20
2010,10,10,08,27,10.20
2010,10,10,08,28,10.20
2010,10,10,08,29,10.20
2010,10,10,08,30,10.20
2010,10,10,08,31,10.20
2010,10,10,08,32,10.20
2010,10,10,08,33,10.20
2010,10,10,08,34,10.30
2010,10,10,08,35,10.30
2010,10,10,08,36,10.30
2010,10,10,08,37,10.30
2010,10,10,08,38,10.30
2010,10,10,08,39,10.30
2010,10,10,08,40,10.30
2010,10,10,08,41,10.30
2010,10,10,08,42,10.30
2010,10,10,08,43,10.30
2010,10,10,08,44,10.30
2010,10,10,08,45,10.30
2010,10,10,08,46,10.30
2010,10,10,08,47,10.30
2010,10,10,08,48,10.40
2010,10,10,08,49,10.40
2010,10,10,08,50,10.40
2010,10,10,08,51,10.40
2010,10,10,08,52,10.40
2010,10,10,08,53,10.40
2010,10,10,08,54,10.40
2010,10,10,08,55,10.40
2010,10,10,08,56,10.40
2010,10,10,08,57,10.40
2010,10,10,08,58,10.40
2010,10,10,08,59,10.40
2010,10,10,09,00,10.40
2010,10,10,09,01,10.40
2010,10,10,09,02,10.40
2010,10,10,09,03,10.40
2010,10,10,09,04,10.40
2010,10,10,09,05,10.40
2010,10,10,09,06,10.40
2010,10,10,09,07,10.40
2010,10,10,09,08,10.40
2010,10,10,09,09,10.50
2010,10,10,09,10,10.50
2010,10,10,09,11,10.50
2010,10,10,09,12,10.50
2010,10,10,09,13,10.60
2010,10,10,09,14,10.60
2010,10,10,09,15,10.60
2010,10,10,09,16,10.60
2010,10,10,09,17,10.70
2010,10,10,09,18,10.70
2010,10,10,09,19,10.70
2010,10,10,09,20,10.70
2010,10,10,09,21,10.70
2010,10,10,09,22,10.80
2010,10,10,09,23,10.80
2010,10,10,09,24,10.80
2010,10,10,09,25,10.80
2010,10,10,09,26,10.80
2010,10,10,09,27,10.70
2010,10,10,09,28,10.80
2010,10,10,09,29,10.80
2010,10,10,09,30,10.80
2010,10,10,09,31,10.90
2010,10,10,09,32,11.00
2010,10,10,09,33,11.10
2010,10,10,09,34,11.20
2010,10,10,09,35,11.20
2010,10,10,09,36,11.30
2010,10,10,09,37,11.40
2010,10,10,09,38,11.50
2010,10,10,09,39,11.60
2010,10,10,09,40,11.70
2010,10,10,09,41,11.80
2010,10,10,09,42,11.90
2010,10,10,09,43,11.90
2010,10,10,09,44,11.90
2010,10,10,09,45,12.00
2010,10,10,09,46,12.10
2010,10,10,09,47,12.20
2010,10,10,09,48,12.20
2010,10,10,09,49,12.20
2010,10,10,09,50,12.30
2010,10,10,09,51,12.30
2010,10,10,09,52,12.40
2010,10,10,09,53,12.40
2010,10,10,09,54,12.50
2010,10,10,09,55,12.50
2010,10,10,09,56,12.60
2010,10,10,09,57,12.60
2010,10,10,09,58,12.70
2010,10,10,09,59,12.70
2010,10,10,10,00,12.70
2010,10,10,10,01,12.80
2010,10,10,10,02,12.80
2010,10,10,10,03,12.80
2010,10,10,10,04,12.90
2010,10,10,10,05,13.00
2010,10,10,10,06,13.00
2010,10,10,10,07,13.10
2010,10,10,10,08,13.20
2010,10,10,10,09,13.20
2010,10,10,10,10,13.30
2010,10,10,10,11,13.30
2010,10,10,10,12,13.40
2010,10,10,10,13,13.40
2010,10,10,10,14,13.50
2010,10,10,10,15,13.60
2010,10,10,10,16,13.60
2010,10,10,10,17,13.60
2010,10,10,10,18,13.60
2010,10,10,10,19,13.60
2010,10,10,10,20,13.60
2010,10,10,10,21,13.70
2010,10,10,10,22,13.70
2010,10,10,10,23,13.70
2010,10,10,10,24,13.80
2010,10,10,10,25,13.80
2010,10,10,10,26,13.80
2010,10,10,10,27,13.90
2010,10,10,10,28,13.90
2010,10,10,10,29,14.00
2010,10,10,10,30,14.10
2010,10,10,10,31,14.10
2010,10,10,10,32,14.10
2010,10,10,10,33,14.20
2010,10,10,10,34,14.20
2010,10,10,10,35,14.30
2010,10,10,10,36,14.30
2010,10,10,10,37,14.30
2010,10,10,10,38,14.40
2010,10,10,10,39,14.40
2010,10,10,10,40,14.40
2010,10,10,10,41,14.40
2010,10,10,10,42,14.40
2010,10,10,10,43,14.40
2010,10,10,10,44,14.40
2010,10,10,10,45,14.50
2010,10,10,10,46,14.50
2010,10,10,10,47,14.60
2010,10,10,10,48,14.60
2010,10,10,10,49,14.70
2010,10,10,10,50,14.70
2010,10,10,10,51,14.70
2010,10,10,10,52,14.70
2010,10,10,10,53,14.80
2010,10,10,10,54,14.80
2010,10,10,10,55,14.70
2010,10,10,10,56,14.70
2010,10,10,10,57,14.70
2010,10,10,10,58,14.70
2010,10,10,10,59,14.80
2010,10,10,11,00,14.80
2010,10,10,11,01,14.80
2010,10,10,11,02,14.80
2010,10,10,11,03,14.80
2010,10,10,11,04,14.80
2010,10,10,11,05,14.80
2010,10,10,11,06,14.80
2010,10,10,11,07,14.90
2010,10,10,11,08,14.90
2010,10,10,11,09,15.00
2010,10,10,11,10,15.00
2010,10,10,11,11,15.00
2010,10,10,11,12,15.00
2010,10,10,11,13,15.00
2010,10,10,11,14,15.00
2010,10,10,11,15,15.10
2010,10,10,11,16,15.10
2010,10,10,11,17,15.10
2010,10,10,11,18,15.10
2010,10,10,11,19,15.10
2010,10,10,11,20,15.10
2010,10,10,11,21,15.10
2010,10,10,11,22,15.20
2010,10,10,11,23,15.20
2010,10,10,11,24,15.20
2010,10,10,11,25,15.20
2010,10,10,11,26,15.10
2010,10,10,11,27,15.00
2010,10,10,11,28,15.00
2010,10,10,11,29,15.00
2010,10,10,11,30,15.10
2010,10,10,11,31,15.10
2010,10,10,11,32,15.10
2010,10,10,11,33,15.10
2010,10,10,11,34,15.10
2010,10,10,11,35,15.20
2010,10,10,11,36,15.20
2010,10,10,11,37,15.20
2010,10,10,11,38,15.20
2010,10,10,11,39,15.20
2010,10,10,11,40,15.30
2010,10,10,11,41,15.30
2010,10,10,11,42,15.30
2010,10,10,11,43,15.30
2010,10,10,11,44,15.30
2010,10,10,11,45,15.30
2010,10,10,11,46,15.30
2010,10,10,11,47,15.40
2010,10,10,11,48,15.40
2010,10,10,11,49,15.40
2010,10,10,11,50,15.40
2010,10,10,11,51,15.40
2010,10,10,11,52,15.40
2010,10,10,11,53,15.40
2010,10,10,11,54,15.40
2010,10,10,11,55,15.40
2010,10,10,11,56,15.40
2010,10,10,11,57,15.40
2010,10,10,11,58,15.40
2010,10,10,11,59,15.50
2010,10,10,12,00,15.50
2010,10,10,12,01,15.50
2010,10,10,12,02,15.50
2010,10,10,12,03,15.60
2010,10,10,12,04,15.60
2010,10,10,12,05,15.60
2010,10,10,12,06,15.60
2010,10,10,12,07,15.60
2010,10,10,12,08,15.60
2010,10,10,12,09,15.70
2010,10,10,12,10,15.70
2010,10,10,12,11,15.70
2010,10,10,12,12,15.70
2010,10,10,12,13,15.70
2010,10,10,12,14,15.80
2010,10,10,12,15,15.80
2010,10,10,12,16,15.80
2010,10,10,12,17,15.80
2010,10,10,12,18,15.80
2010,10,10,12,19,15.80
2010,10,10,12,20,15.80
2010,10,10,12,21,15.90
2010,10,10,12,22,15.90
2010,10,10,12,23,15.90
2010,10,10,12,24,16.00
2010,10,10,12,25,16.00
2010,10,10,12,26,16.00
2010,10,10,12,27,16.10
2010,10,10,12,28,16.10
2010,10,10,12,29,16.10
2010,10,10,12,30,16.10
2010,10,10,12,31,16.10
2010,10,10,12,32,16.20
2010,10,10,12,33,16.20
2010,10,10,12,34,16.10
2010,10,10,12,35,16.20
2010,10,10,12,36,16.20
2010,10,10,12,37,16.20
2010,10,10,12,38,16.20
2010,10,10,12,39,16.30
2010,10,10,12,40,16.30
2010,10,10,12,41,16.30
2010,10,10,12,42,16.40
2010,10,10,12,43,16.40
2010,10,10,12,44,16.40
2010,10,10,12,45,16.40
2010,10,10,12,46,16.40
2010,10,10,12,47,16.40
2010,10,10,12,48,16.40
2010,10,10,12,49,16.40
2010,10,10,12,50,16.40
2010,10,10,12,51,16.40
2010,10,10,12,52,16.50
2010,10,10,12,53,16.50
2010,10,10,12,54,16.60
2010,10,10,12,55,16.60
2010,10,10,12,56,16.60
2010,10,10,12,57,16.60
2010,10,10,12,58,16.60
2010,10,10,12,59,16.60
2010,10,10,13,00,16.50
2010,10,10,13,01,16.50
2010,10,10,13,02,16.60
2010,10,10,13,03,16.60
2010,10,10,13,04,16.60
2010,10,10,13,05,16.60
2010,10,10,13,06,16.60
2010,10,10,13,07,16.70
2010,10,10,13,08,16.70
2010,10,10,13,09,16.70
2010,10,10,13,10,16.70
2010,10,10,13,11,16.70
2010,10,10,13,12,16.70
2010,10,10,13,13,16.70
2010,10,10,13,14,16.80
2010,10,10,13,15,16.80
2010,10,10,13,16,16.80
2010,10,10,13,17,16.90
2010,10,10,13,18,16.90
2010,10,10,13,19,16.90
2010,10,10,13,20,16.90
2010,10,10,13,21,16.80
2010,10,10,13,22,16.80
2010,10,10,13,23,16.90
2010,10,10,13,24,16.90
2010,10,10,13,25,16.90
2010,10,10,13,26,16.90
2010,10,10,13,27,16.90
2010,10,10,13,28,16.90
2010,10,10,13,29,16.90
2010,10,10,13,30,16.90
2010,10,10,13,31,16.90
2010,10,10,13,32,17.00
2010,10,10,13,33,17.00
2010,10,10,13,34,17.10
2010,10,10,13,35,17.10
2010,10,10,13,36,17.10
2010,10,10,13,37,17.10
2010,10,10,13,38,17.00
2010,10,10,13,39,17.10
2010,10,10,13,40,17.10
2010,10,10,13,41,17.00
2010,10,10,13,42,17.00
2010,10,10,13,43,17.00
2010,10,10,13,44,16.90
2010,10,10,13,45,16.90
2010,10,10,13,46,16.90
2010,10,10,13,47,17.00
2010,10,10,13,48,17.00
2010,10,10,13,49,17.00
2010,10,10,13,50,17.00
2010,10,10,13,51,17.00
2010,10,10,13,52,17.10
2010,10,10,13,53,17.10
2010,10,10,13,54,17.10
2010,10,10,13,55,17.10
2010,10,10,13,56,17.10
2010,10,10,13,57,17.20
2010,10,10,13,58,17.20
2010,10,10,13,59,17.30
2010,10,10,14,00,17.30
2010,10,10,14,01,17.30
2010,10,10,14,02,17.40
2010,10,10,14,03,17.40
2010,10,10,14,04,17.40
2010,10,10,14,05,17.40
2010,10,10,14,06,17.40
2010,10,10,14,07,17.50
2010,10,10,14,08,17.60
2010,10,10,14,09,17.60
2010,10,10,14,10,17.70
2010,10,10,14,11,17.70
2010,10,10,14,12,17.80
2010,10,10,14,13,17.80
2010,10,10,14,14,17.80
2010,10,10,14,15,17.80
2010,10,10,14,16,17.80
2010,10,10,14,17,17.80
2010,10,10,14,18,17.80
2010,10,10,14,19,17.80
2010,10,10,14,20,17.80
2010,10,10,14,21,17.80
2010,10,10,14,22,17.80
2010,10,10,14,23,17.80
2010,10,10,14,24,17.80
2010,10,10,14,25,17.80
2010,10,10,14,26,17.80
2010,10,10,14,27,17.80
2010,10,10,14,28,17.90
2010,10,10,14,29,17.90
2010,10,10,14,30,17.80
2010,10,10,14,31,17.70
2010,10,10,14,32,17.60
2010,10,10,14,33,17.50
2010,10,10,14,34,17.40
2010,10,10,14,35,17.30
2010,10,10,14,36,17.30
2010,10,10,14,37,17.30
2010,10,10,14,38,17.30
2010,10,10,14,39,17.20
2010,10,10,14,40,17.10
2010,10,10,14,41,16.90
2010,10,10,14,42,16.80
2010,10,10,14,43,16.80
2010,10,10,14,44,16.70
2010,10,10,14,45,16.70
2010,10,10,14,46,16.70
2010,10,10,14,47,16.80
2010,10,10,14,48,16.80
2010,10,10,14,49,16.90
2010,10,10,14,50,17.00
2010,10,10,14,51,17.00
2010,10,10,14,52,17.10
2010,10,10,14,53,17.20
2010,10,10,14,54,17.20
2010,10,10,14,55,17.30
2010,10,10,14,56,17.40
2010,10,10,14,57,17.50
2010,10,10,14,58,17.60
2010,10,10,14,59,17.70
2010,10,10,15,00,17.70
2010,10,10,15,01,17.70
2010,10,10,15,02,17.80
2010,10,10,15,03,17.80
2010,10,10,15,04,17.80
2010,10,10,15,05,17.80
2010,10,10,15,06,17.80
2010,10,10,15,07,17.90
2010,10,10,15,08,17.90
2010,10,10,15,09,17.90
2010,10,10,15,10,17.80
2010,10,10,15,11,17.80
2010,10,10,15,12,17.80
2010,10,10,15,13,17.80
2010,10,10,15,14,17.80
2010,10,10,15,15,17.70
2010,10,10,15,16,17.70
2010,10,10,15,17,17.70
2010,10,10,15,18,17.60
2010,10,10,15,19,17.60
2010,10,10,15,20,17.60
2010,10,10,15,21,17.60
2010,10,10,15,22,17.60
2010,10,10,15,23,17.60
2010,10,10,15,24,17.60
2010,10,10,15,25,17.50
2010,10,10,15,26,17.40
2010,10,10,15,27,17.40
2010,10,10,15,28,17.30
2010,10,10,15,29,17.30
2010,10,10,15,30,17.20
2010,10,10,15,31,17.30
2010,10,10,15,32,17.30
2010,10,10,15,33,17.40
2010,10,10,15,34,17.40
2010,10,10,15,35,17.50
2010,10,10,15,36,17.50
2010,10,10,15,37,17.60
2010,10,10,15,38,17.60
2010,10,10,15,39,17.70
2010,10,10,15,40,17.70
2010,10,10,15,41,17.70
2010,10,10,15,42,17.70
2010,10,10,15,43,17.70
2010,10,10,15,44,17.70
2010,10,10,15,45,17.60
2010,10,10,15,46,17.50
2010,10,10,15,47,17.50
2010,10,10,15,48,17.40
2010,10,10,15,49,17.40
2010,10,10,15,50,17.40
2010,10,10,15,51,17.40
2010,10,10,15,52,17.30
2010,10,10,15,53,17.30
2010,10,10,15,54,17.20
2010,10,10,15,55,17.10
2010,10,10,15,56,17.10
2010,10,10,15,57,17.10
2010,10,10,15,58,17.00
2010,10,10,15,59,17.00
2010,10,10,16,00,16.90
2010,10,10,16,01,16.90
2010,10,10,16,02,16.90
2010,10,10,16,03,16.90
2010,10,10,16,04,16.90
2010,10,10,16,05,16.80
2010,10,10,16,06,16.90
2010,10,10,16,07,16.90
2010,10,10,16,08,17.00
2010,10,10,16,09,17.00
2010,10,10,16,10,17.00
2010,10,10,16,11,17.00
2010,10,10,16,12,17.00
2010,10,10,16,13,16.90
2010,10,10,16,14,16.80
2010,10,10,16,15,16.70
2010,10,10,16,16,16.70
2010,10,10,16,17,16.60
2010,10,10,16,18,16.50
2010,10,10,16,19,16.40
2010,10,10,16,20,16.30
2010,10,10,16,21,16.20
2010,10,10,16,22,16.20
2010,10,10,16,23,16.00
2010,10,10,16,24,16.00
2010,10,10,16,25,15.90
2010,10,10,16,26,15.80
2010,10,10,16,27,15.80
2010,10,10,16,28,15.70
2010,10,10,16,29,15.70
2010,10,10,16,30,15.70
2010,10,10,16,31,15.70
2010,10,10,16,32,15.70
2010,10,10,16,33,15.70
2010,10,10,16,34,15.70
2010,10,10,16,35,15.70
2010,10,10,16,36,15.70
2010,10,10,16,37,15.70
2010,10,10,16,38,15.70
2010,10,10,16,39,15.80
2010,10,10,16,40,15.80
2010,10,10,16,41,15.80
2010,10,10,16,42,15.80
2010,10,10,16,43,15.80
2010,10,10,16,44,15.80
2010,10,10,16,45,15.70
2010,10,10,16,46,15.70
2010,10,10,16,47,15.70
2010,10,10,16,48,15.70
2010,10,10,16,49,15.70
2010,10,10,16,50,15.70
2010,10,10,16,51,15.70
2010,10,10,16,52,15.70
2010,10,10,16,53,15.70
2010,10,10,16,54,15.70
2010,10,10,16,55,15.70
2010,10,10,16,56,15.70
2010,10,10,16,57,15.70
2010,10,10,16,58,15.80
2010,10,10,16,59,15.80
2010,10,10,17,00,15.80
2010,10,10,17,01,15.80
2010,10,10,17,02,15.80
2010,10,10,17,03,15.80
2010,10,10,17,04,15.80
2010,10,10,17,05,15.80
2010,10,10,17,06,15.80
2010,10,10,17,07,15.80
2010,10,10,17,08,15.80
2010,10,10,17,09,15.70
2010,10,10,17,10,15.70
2010,10,10,17,11,15.60
2010,10,10,17,12,15.60
2010,10,10,17,13,15.60
2010,10,10,17,14,15.50
2010,10,10,17,15,15.40
2010,10,10,17,16,15.40
2010,10,10,17,17,15.30
2010,10,10,17,18,15.20
2010,10,10,17,19,15.10
2010,10,10,17,20,15.00
2010,10,10,17,21,15.00
2010,10,10,17,22,15.00
2010,10,10,17,23,15.00